Hourly Data Report for May 13, 2021

DRYDEN REGIONAL
ONTARIO
Current Station Operator: NAVCAN

49°49'39.000" N
92°44'39.000" W
412.70 m
6032125
71527
YHD

Download Data

Hourly Data (May 2021)
Hourly Data Report for May 13, 2021
TIME
LST
Temp Definition
°C
Dew Point Definition
°C
Rel Hum Definition
%
Precip. Amount Definition
mm

Wind Dir Definition
10's deg

Wind Spd Definition
km/h
Visibility Definition
km
Stn Press Definition
kPa
Hmdx Definition


Wind Chill Definition


Weather Definition


00:00 10.6 -1.4 43 0.0 19 11 16.1 97.45     LegendNANA
01:00 10.5 -1.5 43 0.0 19 9 16.1 97.45     LegendNANA
02:00 10.2 -1.7 43 0.0 20 9 16.1 97.43     LegendNANA
03:00 9.6 -1.4 46 0.0 19 11 16.1 97.41     LegendNANA
04:00 9.2 -1.5 47 0.0 19 11 16.1 97.40     LegendNANA
05:00 9.2 -1.5 47 0.0 19 9 16.1 97.40     LegendNANA
06:00 8.9 -0.9 50 0.0 19 11 16.1 97.40     LegendNANA
07:00 13.0 -0.2 40 0.0 19 11 16.1 97.41     LegendNANA
08:00 15.5 -1.5 31 0.0 21 15 16.1 97.39     LegendNANA
09:00 17.4 -0.7 29 0.0 19 15 16.1 97.35     LegendNANA
10:00 19.8 -0.6 25 0.0 18 18 16.1 97.32     LegendNANA
11:00 20.6 -2.0 22 0.0 21 22 16.1 97.28     LegendNANA
12:00 20.7 -1.3 23 0.0 23 17 16.1 97.22     LegendNANA
13:00 19.2 -1.2 25 0.0 26 24 16.1 97.20     LegendNANA
14:00 20.3 -0.8 24 0.0 23 26 16.1 97.15     LegendNANA
15:00 20.0 -1.1 24 0.0 24 15 16.1 97.10     LegendNANA
16:00 20.6 -0.5 24 0.0 23 26 16.1 97.05     LegendNANA
17:00 19.7 -0.8 25 0.0 23 21 16.1 97.06     LegendNANA
18:00 19.9 -1.7 23 0.0 23 18 16.1 97.04     LegendNANA
19:00 17.5 -1.1 28 0.0 23 9 16.1 97.06     LegendNANA
20:00 15.7 -0.5 33 0.0 LegendMM 4 16.1 97.06     LegendNANA
21:00 15.7 -0.5 33 0.0 16 5 16.1 97.07     LegendNANA
22:00 14.0 -0.4 37 0.0 18 9 16.1 97.05     LegendNANA
23:00 13.0 0.1 41 0.0 19 13 16.1 97.05     LegendNANA

Notes on Data Quality.

Legend

  • E = Estimated
  • M = Missing
  • NA = Not Available*
  • [empty] = Indicates an unobserved value
Date modified: